Kirksville, MO

4:11 AM CDT on April 30, 2017 (GMT -0500)
Kirksville Regional

Weather History for KIRK - November, 2010

Change the Weather History Date:

Monday, November 1, 2010

  Actual Average Record
Temperature  
Mean Temperature 45 °F 47 °F  
Max Temperature 53 °F 58 °F 82 °F (1937)
Min Temperature 37 °F 37 °F 19 °F (2002)
Degree Days  
Heating Degree Days 20 18  
Month to date heating degree days 20 18  
Since 1 July heating degree days 380 507  
Cooling Degree Days 0 0  
Month to date cooling degree days 0 0  
Year to date cooling degree days 1143 939  
Moisture  
Dew Point 30 °F    
Average Humidity 59    
Maximum Humidity 76    
Minimum Humidity 41    
Precipitation  
Precipitation 0.00 in 0.12 in 2.07 in (1984)
Month to date precipitation 0.00 0.12  
Year to date precipitation 49.81 34.96  
Sea Level Pressure  
Sea Level Pressure 30.33 in    
Wind  
Wind Speed 9 mph (ENE)    
Max Wind Speed 16 mph    
Max Gust Speed 21 mph    
Visibility 10 miles    
Events      
T = Trace of Precipitation, MM = Missing Value Source: NWS Daily Summary

Daily Weather History Graph

Daily Weather History Graph

Search for Another Location

Airport or City:

Trip Planner

Search our weather history database for the weather conditions in past years. The results will help you decide how hot, cold, wet, or windy it might be!

Date:

Astronomy

Nov. 01, 2010 Rise Set
Actual Time 7:39 AM CDT 6:07 PM CDT
Civil Twilight 7:11 AM CDT 6:35 PM CDT
Nautical Twilight 6:39 AM CDT 7:07 PM CDT
Astronomical Twilight 6:07 AM CDT 7:39 PM CDT
Moon 2:16 AM CDT (11/1) 3:15 PM CDT (11/1)
Length of Visible Light 11h 24m
Length of Day
10h 28m
Waning Crescent, 26% of the Moon is Illuminated
Nov 1
Waning Crescent
Nov 5
New
Nov 13
First Quarter
Nov 21
Full
Nov 28
Last Quarter

Hourly Weather History & Observations

Time (CDT) Temp. Windchill Dew Point Humidity Pressure Visibility Wind Dir Wind Speed Gust Speed Precip Events Conditions
12:55 AM 45.0 °F 39.3 °F 30.0 °F 56% 30.25 in 10.0 mi East 11.5 mph - N/A   Clear
1:55 AM 44.1 °F 39.0 °F 30.0 °F 58% 30.26 in 10.0 mi ENE 9.2 mph - N/A   Clear
2:55 AM 44.1 °F 39.5 °F 30.9 °F 60% 30.27 in 10.0 mi ENE 8.1 mph - N/A   Clear
3:55 AM 44.1 °F 39.0 °F 30.9 °F 60% 30.25 in 10.0 mi East 9.2 mph - N/A   Partly Cloudy
4:55 AM 43.0 °F 37.7 °F 30.9 °F 62% 30.27 in 10.0 mi ENE 9.2 mph - N/A   Clear
5:55 AM 41.0 °F 34.7 °F 30.0 °F 65% 30.29 in 10.0 mi ENE 10.4 mph - N/A   Clear
6:55 AM 39.0 °F 32.8 °F 30.0 °F 70% 30.31 in 10.0 mi ENE 9.2 mph - N/A   Clear
7:55 AM 39.0 °F 32.8 °F 30.0 °F 70% 30.33 in 10.0 mi ENE 9.2 mph - N/A   Partly Cloudy
8:55 AM 42.1 °F 35.7 °F 32.0 °F 67% 30.35 in 10.0 mi East 11.5 mph - N/A   Mostly Cloudy
9:55 AM 45.0 °F 38.5 °F 30.9 °F 58% 30.35 in 10.0 mi East 13.8 mph 19.6 mph N/A   Partly Cloudy
10:55 AM 46.9 °F - 30.9 °F 54% 30.35 in 10.0 mi East 9.2 mph - N/A   Clear
11:55 AM 50.0 °F - 30.0 °F 46% 30.35 in 10.0 mi East 12.7 mph - N/A   Clear
12:55 PM 51.1 °F - 30.0 °F 44% 30.34 in 10.0 mi ENE 9.2 mph - N/A   Clear
1:55 PM 52.0 °F - 32.0 °F 47% 30.33 in 10.0 mi ENE 11.5 mph - N/A   Clear
2:55 PM 53.1 °F - 32.0 °F 45% 30.32 in 10.0 mi ENE 12.7 mph 17.3 mph N/A   Clear
3:55 PM 53.1 °F - 30.0 °F 41% 30.33 in 10.0 mi ENE 11.5 mph - N/A   Clear
4:55 PM 50.0 °F - 30.9 °F 48% 30.34 in 10.0 mi ENE 8.1 mph - N/A   Clear
5:55 PM 48.0 °F - 30.9 °F 52% 30.34 in 10.0 mi ENE 6.9 mph - N/A   Clear
6:55 PM 43.0 °F 38.8 °F 30.0 °F 60% 30.35 in 10.0 mi NE 6.9 mph - N/A   Clear
7:55 PM 44.1 °F 40.8 °F 28.9 °F 55% 30.37 in 10.0 mi ENE 5.8 mph - N/A   Clear
8:55 PM 43.0 °F 39.5 °F 28.9 °F 58% 30.38 in 10.0 mi ENE 5.8 mph - N/A   Clear
9:55 PM 41.0 °F 37.1 °F 28.9 °F 62% 30.40 in 10.0 mi NE 5.8 mph - N/A   Clear
10:55 PM 41.0 °F 37.1 °F 30.0 °F 65% 30.40 in 10.0 mi ENE 5.8 mph - N/A   Clear
11:55 PM 37.9 °F 33.5 °F 30.0 °F 73% 30.40 in 10.0 mi ENE 5.8 mph - N/A   Clear